CEB506 RJAA-RPLL

Flight info

Callsign CEB506
Flight time N/A
Altitude 36000
Route SAMUS Y84 BUBDO A590 MUPOB DCT KANDU DCT POLIO POLIO7R
Aircraft A339/H-SADE1E2E3GHIJ3J5M1P2RWXY/LB2D1

Departure

Time N/A
Airport Narita International Airport (RJAA)

Arrival

Time 2026-05-03 21:17
Airport Ninoy Aquino International Airport (RPLL)
Time Latitude Longitude Altitude Speed Heading
2026-05-03 20:15 17.32374 124.38982 35915 ft 506 kts 218°
2026-05-03 20:15 17.27023 124.34693 35912 ft 502 kts 217°
2026-05-03 20:15 17.24593 124.32748 35908 ft 488 kts 217°
2026-05-03 20:16 17.22362 124.30964 35914 ft 492 kts 217°
2026-05-03 20:16 17.17617 124.27171 35916 ft 502 kts 217°
2026-05-03 20:17 17.12240 124.22878 35915 ft 506 kts 217°
2026-05-03 20:17 17.06748 124.18494 35914 ft 507 kts 217°
2026-05-03 20:18 17.01219 124.14082 35914 ft 509 kts 216°
2026-05-03 20:18 16.95624 124.09621 35915 ft 510 kts 216°
2026-05-03 20:19 16.89981 124.05133 35915 ft 510 kts 216°
2026-05-03 20:19 16.84437 124.00728 35915 ft 510 kts 216°
2026-05-03 20:20 16.78888 123.96320 35915 ft 510 kts 216°
2026-05-03 20:20 16.73373 123.91940 35915 ft 510 kts 216°
2026-05-03 20:21 16.67796 123.87514 35915 ft 510 kts 216°
2026-05-03 20:21 16.62195 123.83073 35915 ft 510 kts 216°
2026-05-03 20:22 16.56592 123.78633 35915 ft 510 kts 216°
2026-05-03 20:22 16.50972 123.74183 35915 ft 510 kts 216°
2026-05-03 20:23 16.45345 123.69731 35915 ft 510 kts 216°
2026-05-03 20:23 16.39819 123.65363 35915 ft 510 kts 216°
2026-05-03 20:24 16.34244 123.60957 35914 ft 509 kts 216°
2026-05-03 20:24 16.31521 123.58807 35910 ft 497 kts 216°
2026-05-03 20:24 16.28759 123.56626 35914 ft 498 kts 216°
2026-05-03 20:25 16.23308 123.52326 35915 ft 499 kts 216°
2026-05-03 20:25 16.17882 123.48050 35915 ft 498 kts 216°
2026-05-03 20:26 16.12410 123.43739 35915 ft 498 kts 216°
2026-05-03 20:26 16.07228 123.39660 35915 ft 498 kts 216°
2026-05-03 20:27 16.01877 123.35452 35915 ft 499 kts 216°
2026-05-03 20:27 15.97164 123.31747 35914 ft 498 kts 216°
2026-05-03 20:28 15.91038 123.26937 35915 ft 498 kts 216°
2026-05-03 20:28 15.86153 123.23103 35914 ft 498 kts 216°
2026-05-03 20:29 15.81787 123.19677 35908 ft 477 kts 216°
2026-05-03 20:29 15.76850 123.15809 35914 ft 475 kts 216°
2026-05-03 20:30 15.71773 123.11832 35914 ft 475 kts 216°
2026-05-03 20:30 15.66773 123.07315 35914 ft 477 kts 224°
2026-05-03 20:31 15.62491 123.02309 35914 ft 479 kts 231°
2026-05-03 20:31 15.58798 122.96659 35914 ft 481 kts 239°
2026-05-03 20:32 15.55499 122.90636 35914 ft 482 kts 239°
2026-05-03 20:32 15.52337 122.84817 35915 ft 483 kts 239°
2026-05-03 20:33 15.49048 122.78809 35915 ft 483 kts 239°
2026-05-03 20:33 15.45735 122.72775 35915 ft 483 kts 239°
2026-05-03 20:34 15.42421 122.66754 35915 ft 483 kts 239°
2026-05-03 20:34 15.39119 122.60759 35915 ft 483 kts 239°
2026-05-03 20:35 15.35777 122.54697 35915 ft 483 kts 239°
2026-05-03 20:35 15.32490 122.48739 35915 ft 483 kts 239°
2026-05-03 20:36 15.29153 122.42696 35781 ft 484 kts 239°
2026-05-03 20:36 15.27469 122.39649 35237 ft 485 kts 239°
2026-05-03 20:36 15.25808 122.36643 34618 ft 486 kts 239°
2026-05-03 20:36 15.24319 122.33950 34029 ft 483 kts 239°
2026-05-03 20:37 15.22690 122.31007 33352 ft 478 kts 239°
2026-05-03 20:37 15.21081 122.28102 32668 ft 476 kts 239°
2026-05-03 20:37 15.19557 122.25355 32023 ft 479 kts 239°
2026-05-03 20:37 15.17941 122.22440 31340 ft 482 kts 240°
2026-05-03 20:38 15.16252 122.19392 30630 ft 483 kts 240°
2026-05-03 20:38 15.14622 122.16453 29901 ft 485 kts 240°
2026-05-03 20:38 15.12925 122.13393 29116 ft 486 kts 240°
2026-05-03 20:38 15.11229 122.10336 28333 ft 486 kts 240°
2026-05-03 20:39 15.09647 122.07490 27759 ft 477 kts 241°
2026-05-03 20:39 15.07980 122.04490 27484 ft 459 kts 241°
2026-05-03 20:39 15.06461 122.01759 27238 ft 444 kts 241°
2026-05-03 20:39 15.04927 121.98999 26979 ft 429 kts 241°
2026-05-03 20:40 15.03718 121.96825 26769 ft 418 kts 241°
2026-05-03 20:40 15.02102 121.93821 26473 ft 402 kts 246°
2026-05-03 20:40 15.01132 121.91174 26221 ft 391 kts 257°
2026-05-03 20:40 15.00637 121.88470 25990 ft 389 kts 266°
2026-05-03 20:41 15.00467 121.86141 25786 ft 387 kts 269°
2026-05-03 20:41 15.00351 121.83766 25573 ft 385 kts 270°
2026-05-03 20:41 15.00253 121.81596 25377 ft 383 kts 270°
2026-05-03 20:41 15.00102 121.78400 25087 ft 381 kts 270°
2026-05-03 20:42 14.99978 121.75937 24863 ft 380 kts 269°
2026-05-03 20:42 14.99867 121.73803 24667 ft 378 kts 269°
2026-05-03 20:42 14.99768 121.71955 24498 ft 377 kts 269°
2026-05-03 20:42 14.99657 121.69906 24309 ft 376 kts 269°
2026-05-03 20:43 14.99511 121.67266 24064 ft 374 kts 269°
2026-05-03 20:43 14.99363 121.64613 23818 ft 372 kts 269°
2026-05-03 20:43 14.99219 121.62038 23577 ft 370 kts 269°
2026-05-03 20:43 14.99089 121.59721 23359 ft 368 kts 269°
2026-05-03 20:44 14.98972 121.57646 23164 ft 367 kts 269°
2026-05-03 20:44 14.98862 121.55704 22980 ft 366 kts 269°
2026-05-03 20:44 14.98777 121.54205 22837 ft 365 kts 269°
2026-05-03 20:44 14.98589 121.50890 22521 ft 362 kts 270°
2026-05-03 20:45 14.98415 121.47825 22226 ft 360 kts 270°
2026-05-03 20:45 14.98268 121.45245 21977 ft 358 kts 270°
2026-05-03 20:45 14.98122 121.42688 21729 ft 357 kts 270°
2026-05-03 20:45 14.97979 121.40191 21486 ft 355 kts 270°
2026-05-03 20:46 14.97880 121.38474 21317 ft 354 kts 270°
2026-05-03 20:46 14.97761 121.36404 21114 ft 352 kts 270°
2026-05-03 20:46 14.97661 121.34660 20945 ft 351 kts 269°
2026-05-03 20:46 14.97568 121.33048 20792 ft 350 kts 269°
2026-05-03 20:47 14.97457 121.31138 20615 ft 348 kts 269°
2026-05-03 20:47 14.97346 121.29215 20443 ft 347 kts 269°
2026-05-03 20:47 14.97219 121.27013 20255 ft 346 kts 269°
2026-05-03 20:47 14.97074 121.24520 20055 ft 344 kts 269°
2026-05-03 20:48 14.96968 121.22688 19919 ft 343 kts 269°
2026-05-03 20:48 14.96740 121.18776 19653 ft 341 kts 269°
2026-05-03 20:48 14.96612 121.16567 19464 ft 341 kts 269°
2026-05-03 20:49 14.96457 121.13910 19188 ft 339 kts 269°
2026-05-03 20:49 14.96315 121.11481 18921 ft 338 kts 269°
2026-05-03 20:49 14.96175 121.09089 18651 ft 336 kts 269°
2026-05-03 20:49 14.96035 121.06711 18377 ft 335 kts 269°
2026-05-03 20:50 14.95893 121.04317 18100 ft 333 kts 269°
2026-05-03 20:50 14.95752 121.01931 17823 ft 331 kts 269°
2026-05-03 20:50 14.95625 120.99779 17571 ft 330 kts 269°
2026-05-03 20:50 14.95499 120.97669 17325 ft 328 kts 269°
2026-05-03 20:51 14.95360 120.95346 17050 ft 326 kts 269°
2026-05-03 20:51 14.95220 120.93011 16772 ft 325 kts 269°
2026-05-03 20:51 14.95079 120.90671 16486 ft 323 kts 269°
2026-05-03 20:51 14.94945 120.88420 16206 ft 322 kts 269°
2026-05-03 20:52 14.94797 120.86121 15926 ft 320 kts 265°
2026-05-03 20:52 14.94329 120.84367 15706 ft 321 kts 244°
2026-05-03 20:52 14.93433 120.83099 15535 ft 322 kts 226°
2026-05-03 20:52 14.92001 120.82020 15340 ft 323 kts 208°
2026-05-03 20:53 14.90353 120.81258 15149 ft 322 kts 204°
2026-05-03 20:53 14.89275 120.80804 15019 ft 321 kts 204°
2026-05-03 20:53 14.88006 120.80278 14865 ft 319 kts 204°
2026-05-03 20:53 14.85951 120.79414 14613 ft 315 kts 204°
2026-05-03 20:54 14.84223 120.78668 14398 ft 312 kts 205°
2026-05-03 20:54 14.81465 120.77454 14050 ft 308 kts 205°
2026-05-03 20:54 14.79822 120.76720 13840 ft 305 kts 205°
2026-05-03 20:55 14.77934 120.75874 13597 ft 302 kts 206°
2026-05-03 20:55 14.76020 120.75014 13347 ft 300 kts 206°
2026-05-03 20:55 14.74154 120.74174 13102 ft 297 kts 206°
2026-05-03 20:55 14.72289 120.73334 12855 ft 295 kts 206°
2026-05-03 20:56 14.70413 120.72490 12604 ft 292 kts 206°
2026-05-03 20:56 14.68555 120.71654 12353 ft 290 kts 206°
2026-05-03 20:56 14.66697 120.70816 12101 ft 288 kts 206°
2026-05-03 20:56 14.64959 120.70033 11863 ft 286 kts 206°
2026-05-03 20:57 14.63340 120.69320 11640 ft 285 kts 201°
2026-05-03 20:57 14.62060 120.69031 11463 ft 287 kts 184°
2026-05-03 20:57 14.59929 120.69443 11186 ft 289 kts 156°
2026-05-03 20:57 14.58150 120.70438 10942 ft 287 kts 150°
2026-05-03 20:58 14.57633 120.70754 10867 ft 287 kts 150°
2026-05-03 20:58 14.56261 120.71603 10666 ft 286 kts 150°
2026-05-03 20:58 14.54928 120.72420 10471 ft 285 kts 150°
2026-05-03 20:58 14.53703 120.73074 10290 ft 283 kts 163°
2026-05-03 20:59 14.52240 120.73325 10090 ft 280 kts 185°
2026-05-03 20:59 14.50395 120.72768 9883 ft 271 kts 215°
2026-05-03 20:59 14.49137 120.71536 9763 ft 260 kts 239°
2026-05-03 20:59 14.48250 120.69957 9644 ft 253 kts 244°
2026-05-03 21:00 14.47436 120.68350 9518 ft 250 kts 245°
2026-05-03 21:00 14.46906 120.67304 9437 ft 251 kts 245°
2026-05-03 21:00 14.45818 120.65195 9271 ft 250 kts 244°
2026-05-03 21:00 14.44998 120.63636 9140 ft 243 kts 244°
2026-05-03 21:01 14.44192 120.62118 9008 ft 236 kts 244°
2026-05-03 21:01 14.43408 120.60653 8877 ft 230 kts 244°
2026-05-03 21:01 14.42699 120.59329 8756 ft 224 kts 244°
2026-05-03 21:01 14.42126 120.58260 8656 ft 220 kts 244°
2026-05-03 21:02 14.41426 120.56956 8530 ft 214 kts 244°
2026-05-03 21:02 14.40713 120.55628 8398 ft 209 kts 244°
2026-05-03 21:02 14.40022 120.54340 8270 ft 206 kts 244°
2026-05-03 21:02 14.39325 120.53040 8149 ft 207 kts 244°
2026-05-03 21:03 14.38623 120.51732 8024 ft 207 kts 244°
2026-05-03 21:03 14.37925 120.50432 7900 ft 207 kts 244°
2026-05-03 21:03 14.37097 120.49212 7729 ft 209 kts 217°
2026-05-03 21:03 14.35743 120.48776 7484 ft 210 kts 173°
2026-05-03 21:04 14.34685 120.49140 7301 ft 207 kts 146°
2026-05-03 21:04 14.33883 120.49966 7094 ft 202 kts 118°
2026-05-03 21:04 14.33512 120.51099 6700 ft 205 kts 95°
2026-05-03 21:04 14.33433 120.52605 6210 ft 211 kts 88°
2026-05-03 21:05 14.33413 120.54094 6050 ft 200 kts 88°
2026-05-03 21:05 14.33384 120.55418 5942 ft 189 kts 89°
2026-05-03 21:05 14.33339 120.56758 5804 ft 182 kts 89°
2026-05-03 21:05 14.33284 120.58067 5659 ft 183 kts 90°
2026-05-03 21:06 14.33221 120.59375 5501 ft 181 kts 90°
2026-05-03 21:06 14.33154 120.60674 5337 ft 180 kts 90°
2026-05-03 21:06 14.33082 120.61983 5166 ft 181 kts 91°
2026-05-03 21:06 14.33039 120.62761 5107 ft 179 kts 91°
2026-05-03 21:07 14.32967 120.64056 5114 ft 180 kts 91°
2026-05-03 21:07 14.32902 120.65211 5111 ft 181 kts 91°
2026-05-03 21:07 14.32851 120.66122 5103 ft 180 kts 91°
2026-05-03 21:07 14.32849 120.67049 5095 ft 178 kts 84°
2026-05-03 21:08 14.33013 120.68375 5079 ft 178 kts 79°
2026-05-03 21:08 14.33175 120.69315 5053 ft 177 kts 75°
2026-05-03 21:08 14.33559 120.70599 4853 ft 177 kts 66°
2026-05-03 21:08 14.34074 120.71740 4641 ft 174 kts 61°
2026-05-03 21:09 14.34667 120.72842 4456 ft 174 kts 59°
2026-05-03 21:09 14.35264 120.73910 4278 ft 173 kts 59°
2026-05-03 21:09 14.35872 120.74991 4099 ft 173 kts 59°
2026-05-03 21:09 14.36478 120.76069 3922 ft 173 kts 59°
2026-05-03 21:10 14.37074 120.77132 3747 ft 172 kts 59°
2026-05-03 21:10 14.37674 120.78207 3598 ft 171 kts 59°
2026-05-03 21:10 14.38261 120.79261 3547 ft 171 kts 60°
2026-05-03 21:10 14.38855 120.80329 3526 ft 172 kts 60°
2026-05-03 21:11 14.39441 120.81383 3518 ft 172 kts 60°
2026-05-03 21:11 14.40043 120.82468 3515 ft 172 kts 59°
2026-05-03 21:11 14.40636 120.83536 3515 ft 172 kts 60°
2026-05-03 21:11 14.41234 120.84614 3435 ft 173 kts 59°
2026-05-03 21:12 14.41831 120.85690 3207 ft 172 kts 59°
2026-05-03 21:12 14.42423 120.86756 2980 ft 171 kts 60°
2026-05-03 21:12 14.43002 120.87800 2763 ft 166 kts 60°
2026-05-03 21:12 14.43537 120.88765 2547 ft 159 kts 60°
2026-05-03 21:13 14.44028 120.89649 2352 ft 152 kts 59°
2026-05-03 21:13 14.44558 120.90603 2158 ft 153 kts 60°
2026-05-03 21:13 14.44952 120.91312 2015 ft 152 kts 60°
2026-05-03 21:13 14.45377 120.92081 1841 ft 145 kts 61°
2026-05-03 21:14 14.45879 120.92992 1651 ft 142 kts 61°
2026-05-03 21:14 14.46373 120.93882 1471 ft 143 kts 60°
2026-05-03 21:14 14.46868 120.94768 1285 ft 143 kts 61°
2026-05-03 21:14 14.47365 120.95660 1093 ft 143 kts 60°
2026-05-03 21:15 14.47860 120.96548 899 ft 142 kts 60°
2026-05-03 21:15 14.48343 120.97429 680 ft 141 kts 61°
2026-05-03 21:15 14.48834 120.98304 483 ft 141 kts 59°
2026-05-03 21:15 14.49330 120.99182 335 ft 142 kts 61°
2026-05-03 21:16 14.49817 121.00069 156 ft 142 kts 60°
2026-05-03 21:16 14.50292 121.00919 97 ft 129 kts 58°
2026-05-03 21:16 14.50681 121.01629 93 ft 89 kts 59°
2026-05-03 21:16 14.50904 121.02035 93 ft 51 kts 59°
2026-05-03 21:17 14.51078 121.02248 93 ft 26 kts 41°
2026-05-03 21:17 14.51139 121.02296 92 ft 13 kts 19°
2026-05-03 21:17 14.51179 121.02245 92 ft 8 kts 254°
2026-05-03 21:17 14.51151 121.02184 92 ft 10 kts 242°
2026-05-03 21:18 14.51114 121.02119 92 ft 11 kts 239°
2026-05-03 21:18 14.51082 121.02062 92 ft 12 kts 240°
2026-05-03 21:18 14.51067 121.01998 92 ft 11 kts 291°
2026-05-03 21:18 14.51112 121.01945 92 ft 12 kts 315°
2026-05-03 21:19 14.51172 121.01884 92 ft 13 kts 314°
2026-05-03 21:19 14.51229 121.01823 92 ft 14 kts 315°
2026-05-03 21:19 14.51302 121.01749 92 ft 14 kts 315°
2026-05-03 21:19 14.51360 121.01690 92 ft 15 kts 315°
2026-05-03 21:20 14.51419 121.01629 92 ft 15 kts 315°
2026-05-03 21:20 14.51486 121.01559 93 ft 16 kts 315°
2026-05-03 21:20 14.51528 121.01517 92 ft 16 kts 314°
2026-05-03 21:20 14.51582 121.01459 92 ft 16 kts 315°
2026-05-03 21:21 14.51632 121.01414 92 ft 7 kts 342°
2026-05-03 21:21 14.51665 121.01429 92 ft 7 kts 43°
2026-05-03 21:21 14.51681 121.01445 92 ft 7 kts 44°
2026-05-03 21:21 14.51702 121.01466 92 ft 0 kts 43°